Location: Presov
(49.0000°N, 21.2500°E)
Time: 19:36:53
(UTC+02:00)

A-11 Canister half - Visible Passes

Search period start: 19 April 2021 00:00
Search period end: 29 April 2021 00:00
Orbit: 1525 x 1683 km, 47.3° (Epoch: 18 April)

Date Brightness Start Highest point End Pass type
(mag) Time Alt. Az. Time Alt. Az. Time Alt. Az.
19 Apr 10.7 00:26:56 10° W 00:30:42 15° WSW 00:30:42 15° WSW visible
19 Apr 9.3 19:52:32 10° W 20:02:43 78° SSW 20:12:48 10° ESE visible
19 Apr 9.6 21:57:44 10° WNW 22:07:13 46° SW 22:11:50 30° SSE visible
20 Apr 10.6 00:04:55 10° W 00:10:07 16° WSW 00:10:07 16° WSW visible
20 Apr 9.6 21:36:02 10° WNW 21:45:35 48° SW 21:51:17 25° SSE visible
20 Apr 10.5 23:42:57 10° W 23:48:43 17° SW 23:49:34 17° SW visible
21 Apr 9.6 21:14:19 10° WNW 21:23:56 50° SSW 21:30:45 20° SSE visible
21 Apr 10.5 23:21:01 10° W 23:27:09 18° SW 23:29:03 17° SW visible
22 Apr 9.6 20:52:36 10° WNW 21:02:17 51° SSW 21:10:16 16° SE visible
22 Apr 10.5 22:59:07 10° W 23:05:35 19° SW 23:08:33 17° SSW visible
23 Apr 9.6 20:30:55 10° WNW 20:40:38 53° SSW 20:49:48 12° SE visible
23 Apr 10.5 22:37:15 10° W 22:44:01 21° SW 22:48:06 16° SSW visible
24 Apr 9.6 20:09:13 10° WNW 20:19:00 55° SSW 20:28:40 10° SE visible
24 Apr 10.5 22:15:23 10° W 22:22:26 22° SW 22:27:42 14° SSW visible
25 Apr 10.5 21:53:33 10° W 22:00:51 23° SW 22:07:19 12° S visible
26 Apr 10.5 21:31:44 10° W 21:39:16 24° SW 21:46:43 10° S visible
27 Apr 10.5 21:09:56 10° W 21:17:40 26° SW 21:25:21 10° S visible
28 Apr 10.5 20:48:10 10° W 20:56:04 27° SW 21:03:57 10° S visible
